Regional Weather Roundup
Issued by NWS Midland/Odessa, TX

Skip options and go directly to product.
Home | Oldest Version | Previous Version | Current Version | All | Text Only | Save Text | Print | Product List | Glossary On

Skip product version selection by date and time.   
448
ASUS44 KMAF 250110
RWRMAF
MIDLAND AREA WEATHER ROUNDUP
NATIONAL WEATHER SERVICE MIDLAND TX
800 PM CDT FRI MAR 24 2017

...IN SOUTHWEST TEXAS AND SOUTHEAST NEW MEXICO...

CITY           SKY/WX    TMP DP  RH WIND       PRES   REMARKS
ALPINE         CLEAR     67  18  15 W16       30.12R
ANDREWS        FAIR      65  29  25 N21G29    29.99R
ARTESIA        CLEAR     68  30  24 NE13G20   30.00R
BIG SPRING     CLEAR     69  29  23 NW24G30   29.98R
CARLSBAD       CLEAR     72  29  20 NE15G24   29.96R
DRYDEN           N/A     78  25  14 NW13      29.92R
FORT STOCKTON  CLEAR     72  23  16 NW15      29.98R
GUAD PASS        N/A     63  18  17 W29       30.07
HOBBS          CLEAR     63  25  23 N21       30.02R
MARFA          CLEAR     64  17  16 W16       30.11R
MIDLAND AIRPK  CLEAR     70  30  22 N16G28    29.97R
MIDLAND INTL   CLEAR     70  29  21 N22G30    29.96R
ODESSA           N/A     71  29  21 MISG      29.97R
PECOS          CLEAR     74  24  15 W14       29.96R
PRESIDIO       FAIR      78  16   9 W10       30.02R
SEMINOLE       CLEAR     64  27  25 N16G29    30.02R
SNYDER         CLEAR     66  33  29 NW22G28   29.95R
WINK           MOCLDY    76  24  14 W13       29.93R
$$
...OTHER STATIONS IN TEXAS...

CITY           SKY/WX    TMP DP  RH WIND       PRES   REMARKS
ABILENE        PTCLDY    71  32  23 NW23G31   29.86R
AMARILLO       CLOUDY    47  37  68 NW28G37   30.00R WCI  38
AUSTIN         PTCLDY    76  59  55 S9        29.86R
BROWNSVILLE    CLEAR     76  70  82 SE17      29.91S
CORPUS CHRISTI PTCLDY    76  67  73 S21       29.89R
DALLAS FTW     PTCLDY    78  32  18 SW16      29.75R
DEL RIO        CLEAR     79  26  14 NW5       29.87R
EL PASO        PTCLDY    71  20  14 W14G21    30.04R
HOUSTON INT    CLOUDY    75  67  76 S17G30    29.91R
LUBBOCK        PTCLDY    56  33  42 N30G39    29.97R
SAN ANGELO     PTCLDY    75  29  18 W12       29.89R
SAN ANTONIO    CLEAR     76  28  17 SW7       29.89R
WACO           CLEAR     66  53  63 S8        29.82R
WICHITA FALLS  NOT AVBL
$$
...OTHER LOCATIONS IN NEW MEXICO...

CITY           SKY/WX    TMP DP  RH WIND       PRES   REMARKS
ALAMAGORDO     CLEAR     70  19  14 NE3       30.04S
ALBUQUERQUE    PTCLDY    65  17  15 NW21G30   30.06R
CANNON AFB     CLEAR     53  29  39 N26G39    30.05R
CLOVIS         CLEAR     54  28  37 N29G36    30.06R
HOLLOMAN AFB   CLEAR     71  19  14 CALM      30.06R
ROSWELL        CLEAR     66  28  24 NE13      30.02
RUIDOSO        CLEAR     57  19  23 NW12G22   30.15R
SANTA FE       CLEAR     57  28  33 N9        30.09R
TRUTH OR CONSE CLEAR     70  14  11 NW13      30.05R
TUCUMCARI      CLEAR     54  30  40 N29G44    30.04R
$$

  • National Weather Service
  • Southern Region Headquarters
  • 819 Taylor Street, Room 10A06
  • Fort Worth, TX 76102
  • Page Author: NWS Fort Worth
  • Web Master: SR-SRH.Webmaster@noaa.gov
  •  
  • Page last modified: 30-Sep-2016 6:36 PM UTC
USA.gov is the U.S. government's official web portal to all federal, state and local government web resources and services.